Вернуться в каталог

FENGYUN 1C DEB

LostSSO
NORAD 37479·DEBRIS·🇨🇳 China

Запущен May 10, 1999 с Taiyuan Satellite Launch Center

Loading…

Ближайшие Пролёты (ближайшие 24 часа)

TLE

УстаревшееSource: Space-Track

Эпоха: Oct 25, 2022, 10:11 UTC

1 37479U 99025EJZ 22298.42449387  .00001088  00000-0  60917-3 0  9992
2 37479  98.7657   1.7702 0033799 235.4026 124.3956 14.12500732706798

Отслеживайте FENGYUN 1C DEB в реальном времени с AllMySat

Download on the App Store